Location: Devore Heights
(34.2372°N, 117.4156°W)
Time: 03:08:35
(UTC+00:00)

SR - Pass Details

Date: 22 September 2024
Orbit: 578 x 855 km, 66.7° (Epoch: 02 October)

Event Time Altitude Azimuth Distance (km) Brightness Sun altitude
Rises 06:06:25 0° 305° (NW) 3,074 ? -49.0°
Enters shadow 06:06:54 - 303° (WNW) 2,936 ? -49.0°
Reaches altitude 10° 06:10:29 10° 272° (W) 2,227 - -49.5°
Maximum altitude 06:11:59 11° 255° (WSW) 2,167 - -49.7°
Drops below altitude 10° 06:13:30 10° 237° (WSW) 2,278 - -49.9°
Sets 06:17:51 0° 205° (SSW) 3,273 - -50.4°
